When you browse on this site, cookies collect data to enhance your experience and personalize the content and advertising you see.
Visit our Privacy Policy to learn more. By continuing to use the site, you agree to this use of cookies and data.
  • In Latvia
  • List of Countries
  • For 7 days
  • Water Temperature
  • Weather Map
  • Weather Widgets
  • user-avatar
    Login

    Hourly Weather Melenki

    Today, 21 October, Monday

    Time Temperature Precipitation Wind Pressure Humidity
    00:00 +12°C° 0 mm 2 mps 744 mmHg 96%
    01:00 +12°C° 0 mm 2 mps 743 mmHg 96%
    02:00 +12°C° 0 mm 3 mps 743 mmHg 95%
    03:00 +12°C° 0 mm 3 mps 743 mmHg 95%
    04:00 +12°C° 0 mm 3 mps 742 mmHg 95%
    05:00 +12°C° 0 mm 4 mps 742 mmHg 94%
    06:00 +12°C° 0 mm 4 mps 742 mmHg 93%
    07:00 +12°C° 0 mm 5 mps 742 mmHg 91%
    08:00 +13°C° 0 mm 5 mps 742 mmHg 88%
    09:00 +13°C° 0.1 mm 5 mps 742 mmHg 87%
    10:00 +13°C° 0.1 mm 4 mps 742 mmHg 87%
    11:00 +13°C° 0.1 mm 4 mps 742 mmHg 86%
    12:00 +12°C° 0.7 mm 4 mps 742 mmHg 86%
    13:00 +11°C° 0.7 mm 4 mps 742 mmHg 86%
    14:00 +11°C° 0.7 mm 4 mps 743 mmHg 85%
    15:00 +10°C° 0.3 mm 3 mps 743 mmHg 86%
    16:00 +10°C° 0.3 mm 3 mps 743 mmHg 88%
    17:00 +10°C° 0.3 mm 2 mps 744 mmHg 89%
    18:00 +9°C° 0 mm 2 mps 744 mmHg 90%
    19:00 +9°C° 0 mm 2 mps 745 mmHg 92%
    20:00 +8°C° 0 mm 2 mps 745 mmHg 94%
    21:00 +8°C° 0 mm 2 mps 745 mmHg 94%
    22:00 +7°C° 0 mm 2 mps 745 mmHg 94%
    23:00 +6°C° 0 mm 2 mps 746 mmHg 94%

    Tomorrow, 22 October, Tuesday

    Time Temperature Precipitation Wind Pressure Humidity
    00:00 +7°C° 0 mm 1 mps 746 mmHg 94%
    01:00 +6°C° 0 mm 1 mps 746 mmHg 95%
    02:00 +6°C° 0 mm 1 mps 747 mmHg 95%
    03:00 +6°C° 0 mm 1 mps 747 mmHg 95%
    04:00 +6°C° 0 mm 1 mps 747 mmHg 95%
    05:00 +5°C° 0 mm 1 mps 747 mmHg 96%
    06:00 +6°C° 0 mm 1 mps 747 mmHg 95%
    07:00 +6°C° 0 mm 1 mps 747 mmHg 94%
    08:00 +6°C° 0 mm 1 mps 747 mmHg 93%
    09:00 +6°C° 0 mm 2 mps 747 mmHg 88%
    10:00 +8°C° 0 mm 2 mps 747 mmHg 83%
    11:00 +9°C° 0 mm 2 mps 747 mmHg 78%
    12:00 +9°C° 0 mm 2 mps 746 mmHg 77%
    13:00 +10°C° 0 mm 2 mps 746 mmHg 76%
    14:00 +11°C° 0 mm 3 mps 746 mmHg 74%
    15:00 +10°C° 0.1 mm 3 mps 745 mmHg 80%
    16:00 +10°C° 0.1 mm 3 mps 745 mmHg 85%
    17:00 +9°C° 0.1 mm 3 mps 744 mmHg 90%
    18:00 +10°C° 0 mm 3 mps 744 mmHg 91%
    19:00 +11°C° 0 mm 4 mps 744 mmHg 92%
    20:00 +12°C° 0 mm 4 mps 743 mmHg 92%
    21:00 +12°C° 0 mm 4 mps 743 mmHg 91%
    22:00 +12°C° 0 mm 3 mps 743 mmHg 90%
    23:00 +12°C° 0 mm 3 mps 742 mmHg 89%

    Day after tomorrow, 23 October, Wednesday

    Time Temperature Precipitation Wind Pressure Humidity
    00:00 +11°C° 0 mm 3 mps 742 mmHg 88%
    01:00 +11°C° 0 mm 3 mps 742 mmHg 87%
    02:00 +11°C° 0 mm 3 mps 742 mmHg 86%
    03:00 +11°C° 0 mm 3 mps 742 mmHg 88%
    04:00 +10°C° 0 mm 3 mps 742 mmHg 89%
    05:00 +10°C° 0 mm 4 mps 742 mmHg 91%
    06:00 +10°C° 0 mm 4 mps 742 mmHg 88%
    07:00 +11°C° 0 mm 4 mps 742 mmHg 86%
    08:00 +11°C° 0 mm 4 mps 742 mmHg 84%
    09:00 +11°C° 0 mm 4 mps 742 mmHg 81%
    10:00 +12°C° 0 mm 4 mps 742 mmHg 78%
    11:00 +12°C° 0 mm 4 mps 742 mmHg 75%
    12:00 +12°C° 0 mm 4 mps 743 mmHg 76%
    13:00 +12°C° 0 mm 3 mps 743 mmHg 77%
    14:00 +11°C° 0 mm 3 mps 743 mmHg 78%
    15:00 +11°C° 0 mm 3 mps 743 mmHg 79%
    16:00 +10°C° 0 mm 3 mps 743 mmHg 80%
    17:00 +10°C° 0 mm 3 mps 743 mmHg 81%
    18:00 +10°C° 0 mm 2 mps 743 mmHg 82%
    19:00 +10°C° 0 mm 2 mps 744 mmHg 82%
    20:00 +9°C° 0 mm 2 mps 744 mmHg 83%
    21:00 +9°C° 0 mm 2 mps 744 mmHg 84%
    22:00 +9°C° 0 mm 2 mps 744 mmHg 85%
    23:00 +10°C° 0 mm 1 mps 744 mmHg 87%

    24 October, Thursday

    Time Temperature Precipitation Wind Pressure Humidity
    00:00 +10°C° 0 mm 1 mps 744 mmHg 86%
    01:00 +10°C° 0 mm 1 mps 745 mmHg 85%
    02:00 +10°C° 0 mm 1 mps 745 mmHg 85%
    03:00 +10°C° 0 mm 1 mps 745 mmHg 86%
    04:00 +10°C° 0 mm 1 mps 745 mmHg 87%
    05:00 +9°C° 0 mm 1 mps 745 mmHg 89%
    06:00 +9°C° 0 mm 1 mps 745 mmHg 89%
    07:00 +8°C° 0 mm 2 mps 745 mmHg 90%
    08:00 +8°C° 0 mm 2 mps 746 mmHg 91%
    09:00 +9°C° 0 mm 2 mps 746 mmHg 87%
    10:00 +10°C° 0 mm 2 mps 746 mmHg 83%
    11:00 +10°C° 0 mm 2 mps 746 mmHg 79%
    12:00 +10°C° 0 mm 2 mps 746 mmHg 79%
    13:00 +10°C° 0 mm 2 mps 746 mmHg 78%
    14:00 +10°C° 0 mm 2 mps 746 mmHg 78%
    15:00 +9°C° 0 mm 2 mps 746 mmHg 79%
    16:00 +9°C° 0 mm 2 mps 746 mmHg 80%
    17:00 +9°C° 0 mm 2 mps 746 mmHg 81%
    18:00 +8°C° 0 mm 2 mps 746 mmHg 81%
    19:00 +8°C° 0 mm 2 mps 746 mmHg 80%
    20:00 +8°C° 0 mm 2 mps 746 mmHg 80%
    21:00 +8°C° 0 mm 1 mps 747 mmHg 84%
    22:00 +8°C° 0 mm 1 mps 747 mmHg 87%
    23:00 +7°C° 0 mm 1 mps 747 mmHg 90%

    25 October, Friday

    Time Temperature Precipitation Wind Pressure Humidity
    00:00 +6°C° 0 mm 1 mps 747 mmHg 92%
    01:00 +6°C° 0 mm 1 mps 747 mmHg 93%
    02:00 +6°C° 0 mm 1 mps 747 mmHg 95%
    03:00 +5°C° 0 mm 1 mps 747 mmHg 96%
    04:00 +5°C° 0 mm 1 mps 747 mmHg 96%
    05:00 +5°C° 0 mm 1 mps 747 mmHg 97%
    06:00 +5°C° 0 mm 1 mps 747 mmHg 96%
    07:00 +5°C° 0 mm 2 mps 747 mmHg 95%
    08:00 +5°C° 0 mm 2 mps 747 mmHg 94%
    09:00 +6°C° 0 mm 2 mps 747 mmHg 88%
    10:00 +8°C° 0 mm 2 mps 747 mmHg 82%
    11:00 +9°C° 0 mm 2 mps 747 mmHg 76%
    12:00 +10°C° 0 mm 3 mps 746 mmHg 75%
    13:00 +10°C° 0 mm 3 mps 746 mmHg 74%
    14:00 +11°C° 0 mm 3 mps 745 mmHg 73%
    15:00 +10°C° 0 mm 3 mps 745 mmHg 77%
    16:00 +10°C° 0 mm 4 mps 744 mmHg 80%
    17:00 +8°C° 0 mm 4 mps 744 mmHg 83%
    18:00 +8°C° 0 mm 4 mps 743 mmHg 83%
    19:00 +8°C° 0 mm 4 mps 743 mmHg 82%
    20:00 +8°C° 0 mm 5 mps 743 mmHg 82%
    21:00 +8°C° 0 mm 5 mps 742 mmHg 84%
    22:00 +8°C° 0 mm 5 mps 742 mmHg 86%
    23:00 +8°C° 0 mm 5 mps 742 mmHg 88%

    26 October, Saturday

    Time Temperature Precipitation Wind Pressure Humidity
    00:00 +8°C° 0 mm 4 mps 742 mmHg 89%
    01:00 +10°C° 0 mm 4 mps 742 mmHg 90%
    02:00 +10°C° 0 mm 4 mps 742 mmHg 91%
    03:00 +10°C° 0 mm 4 mps 742 mmHg 89%
    04:00 +11°C° 0 mm 4 mps 741 mmHg 88%
    05:00 +11°C° 0 mm 4 mps 741 mmHg 86%
    06:00 +11°C° 0 mm 4 mps 742 mmHg 84%
    07:00 +11°C° 0 mm 4 mps 742 mmHg 82%
    08:00 +10°C° 0 mm 5 mps 742 mmHg 80%
    09:00 +10°C° 0 mm 5 mps 742 mmHg 75%
    10:00 +10°C° 0 mm 5 mps 742 mmHg 71%
    11:00 +10°C° 0 mm 5 mps 743 mmHg 67%
    12:00 +10°C° 0 mm 5 mps 743 mmHg 67%
    13:00 +9°C° 0 mm 5 mps 743 mmHg 67%
    14:00 +9°C° 0 mm 5 mps 743 mmHg 67%
    15:00 +8°C° 0 mm 4 mps 743 mmHg 71%
    16:00 +9°C° 0 mm 3 mps 743 mmHg 74%
    17:00 +8°C° 0 mm 3 mps 743 mmHg 77%
    18:00 +7°C° 0 mm 3 mps 743 mmHg 80%
    19:00 +7°C° 0 mm 2 mps 743 mmHg 83%
    20:00 +7°C° 0 mm 2 mps 743 mmHg 85%
    21:00 +7°C° 0 mm 2 mps 743 mmHg 87%
    22:00 +6°C° 0 mm 2 mps 743 mmHg 88%
    23:00 +5°C° 0 mm 3 mps 743 mmHg 89%

    27 October, Sunday

    Time Temperature Precipitation Wind Pressure Humidity
    00:00 +5°C° 0 mm 3 mps 742 mmHg 87%
    01:00 +7°C° 0 mm 3 mps 742 mmHg 85%
    02:00 +6°C° 0 mm 4 mps 742 mmHg 82%
    03:00 +6°C° 0 mm 4 mps 741 mmHg 83%
    04:00 +6°C° 0 mm 4 mps 740 mmHg 84%
    05:00 +6°C° 0 mm 5 mps 740 mmHg 85%
    06:00 +7°C° 0 mm 5 mps 739 mmHg 85%
    07:00 +7°C° 0 mm 5 mps 739 mmHg 85%
    08:00 +7°C° 0 mm 6 mps 738 mmHg 85%
    09:00 +8°C° 0 mm 6 mps 738 mmHg 82%
    10:00 +9°C° 0 mm 6 mps 737 mmHg 80%
    11:00 +10°C° 0 mm 6 mps 737 mmHg 78%
    12:00 +10°C° 0 mm 6 mps 736 mmHg 79%
    13:00 +10°C° 0 mm 6 mps 736 mmHg 81%
    14:00 +10°C° 0 mm 6 mps 736 mmHg 83%
    15:00 +10°C° 0.3 mm 5 mps 735 mmHg 84%
    16:00 +10°C° 0.3 mm 5 mps 735 mmHg 86%
    17:00 +10°C° 0.3 mm 5 mps 735 mmHg 87%
    18:00 +9°C° 0.4 mm 5 mps 735 mmHg 83%
    19:00 +8°C° 0.4 mm 4 mps 735 mmHg 78%
    20:00 +7°C° 0.4 mm 4 mps 735 mmHg 74%
    21:00 +7°C° 0 mm 3 mps 735 mmHg 76%
    22:00 +5°C° 0 mm 3 mps 735 mmHg 78%
    23:00 +5°C° 0 mm 3 mps 735 mmHg 79%
    Show more